Weather in Kandinka

Russia / Tomsk District     56°17′43″N   84°48′09″E
temp.,
°C
wind,
m/s
gust,
m/s
humid.,
%
clouds,
%
prec.,
mm/h
press.,
hPa
HPBL,
m
13 april, tue
tue1301:00+1w3998100 4.5 1025525
04:00+1wnw2599100 0.4 1025180
07:000nw389657 0.4 1027404
10:000nnw3688100 0.0 1029635
13:00+1wnw3688100 0.0 1030704
16:00+5wnw478376 0.2 10291111
19:00+3w3884100 0.4 1029307
22:00+2w41197100 0.1 1030541
14 april, wed
wed1401:00+1w389691 0.3 1030513
04:000wsw41095100 0.0 1029360
07:00+1wsw41098100 0.4 1028491
10:00+1sw41298100 0.4 1026691
13:00+2sw51497100 3.5 1023740
16:00+4wsw61389100 0.4 10201077
19:00+4w51296100 0.6 1021877
22:00+3w31096100 0.1 1022432
15 april, thu
thu1501:00+3w3898100 0.1 1023288
04:00+2w2699100 0.0 1024171
07:00+1wsw14100100 0.1 102497
10:00+2sw25100100 0.0 1024181
13:00+5sw3594100 0.0 1023455
16:00+6ssw3790100 0.0 1021614
19:00+5ssw3993100 0.0 1019326
22:00+4ssw31097100 0.1 1018347
16 april, fri
fri1601:00
04:00+4sw51297100 0.0 1015477
07:00+5sw41296100 0.0 1014555
10:00+7sw4118994 0.0 1013600
13:00+12sw6107379 0.0 1011823
16:00+14wsw6116696 0.0 10091387
19:00+4n4891100 2.8 1012464
22:00+1nne3997100 2.3 1014470
17 april, sat
sat1701:00+2ne4896100 1.3 1013531
04:00−2ne5992100 3.0 1014566
07:00−3ne5993100 4.3 1014695
10:00−4ne5985100 0.9 1014777
13:00−3ne6881100 1.7 1014977
16:00−3ne5885100 0.7 1015946
19:00−3ne487156 0.8 10161122
22:00−5ne49715 0.0 1018470